Hourly Data Report for April 09, 2018

KUGAARUK CLIMATE
NUNAVUT
Current Station Operator: ECCC - MSC

68°32'15.060" N
89°47'47.020" W
15.80 m
2303094
71407
NBB

Download Data

Hourly Data (April 2018)
Hourly Data Report for April 9, 2018
TIME
LST
Temp Definition
°C
Dew Point Definition
°C
Rel Hum Definition
%
Precip. Amount Definition
mm

Wind Dir Definition
10's deg

Wind Spd Definition
km/h
Visibility Definition
km
Stn Press Definition
kPa
Hmdx Definition


Wind Chill Definition


Weather Definition


00:00 -30.7 -34.5 69 0.0 24 18   100.87   -43 LegendNANA
01:00 -30.3 -34.1 70 0.0 25 15   100.89   -42 LegendNANA
02:00 -31.1 -35.0 68 0.0 25 17   100.92   -44 LegendNANA
03:00 -31.7 -35.8 67 0.0 24 17   100.93   -44 LegendNANA
04:00 -31.5 -35.3 69 0.0 25 23   100.96   -46 LegendNANA
05:00 -31.6 -35.8 66 0.0 25 20   100.95   -45 LegendNANA
06:00 -30.6 -35.2 64 0.2 25 19   100.97   -44 LegendNANA
07:00 -29.7 -34.7 62 0.0 24 21   100.96   -43 LegendNANA
08:00 -29.1 -34.3 61 0.0 24 24   100.97   -43 LegendNANA
09:00 -28.6 -34.1 59 0.0 24 23   100.98   -42 LegendNANA
10:00 -28.1 -33.6 59 0.0 24 23   101.02   -42 LegendNANA
11:00 -27.6 -33.5 57 0.0 24 19   101.04   -40 LegendNANA
12:00 -27.1 -33.0 57 0.0 24 16   101.06   -38 LegendNANA
13:00 -26.7 -32.6 57 0.0 24 15   101.09   -37 LegendNANA
14:00 -26.3 -32.4 57 0.0 23 13   101.12   -36 LegendNANA
15:00 -26.2 -31.9 59 0.0 24 16   101.12   -37 LegendNANA
16:00 -26.3 -31.5 62 0.0 24 16   101.13   -37 LegendNANA
17:00 -26.8 -31.4 65 0.0 23 17   101.12   -38 LegendNANA
18:00 -28.3 -32.4 68 0.0 25 10   101.14   -37 LegendNANA
19:00 -29.1 -32.7 71 0.0 24 12   101.14   -39 LegendNANA
20:00 -30.1 -33.8 70 0.0 23 14   101.12   -41 LegendNANA
21:00 -30.8 -34.5 70 0.0 24 15   101.08   -42 LegendNANA
22:00 -30.8 -34.1 73 0.0 24 19   101.04   -44 LegendNANA
23:00 -31.9 -35.6 70 0.0 23 18   101.01   -45 LegendNANA

Notes on Data Quality.

Legend

  • E = Estimated
  • M = Missing
  • NA = Not Available*
  • [empty] = Indicates an unobserved value
Date modified: